KVUJ Airport (Stanly County) Information

FAA: VUJ - ICAO: KVUJ

KVUJ Airport Location

State North Carolina
County Stanly
City Albemarle
KVUJ Airport is 4 miles northeast of Albemarle, NC.
Latitude 35-25-00.0980N
Longitude 080-09-02.8480W
Elevation 609ft

KVUJ Airport METARs

METAR KVUJ 071955Z AUTO 00000KT 5SM BR OVC006 17/16 A3024 RMK AO2 T01700158
Altimeter 30.24"
Temperature 17.0°C (62.6°F)
Wind 0° at 0KT
Clouds overcast at 600ft
Visibility 5.0mi
Time observed: 2022-12-07T19:55:00Z

KVUJ Airport Details

Status Operational
Activation January 1979
Ownership Public
Usage Public
Chart CHARLOTTE
ATC on-site Yes
Beacon schedule sunset-sunrise
Beacon color clear green

KVUJ Airport Contacts

Owner STANLY COUNTY
Owner address 43222 LOWDER AVIATION PARKWAY, NEW LONDON, NC 28127
Owner phone 704-982-9013
Manager JOHN J MEERWARTH
Manager address RD#1 BOX 223, EAGLE BRIDGE, NY 12057
Manager phone 518-686-9608

KVUJ Airport (Stanly County) Radio Frequencies

KVUJ (Airport) Radio Frequencies

UNICOM 123
Common traffic advisory frequency (CTAF) 126.275